This is the latest recevied weather packets stored in our database for station/object OE6PLD-13. If no packets are shown the sender has not sent any weather packets the latest 10 day(s).
| Time | Temp. | Humidity | Pressure | Rain* | Wind** | Luminosity | Snow |
|---|---|---|---|---|---|---|---|
| 1777410518 | 12.78° C | 68% | 1014.4 hPa | 0.76 mm | - | 0 W/m² | - |
| 1777410335 | 12.78° C | 67% | 1014.4 hPa | 0.76 mm | - | 0 W/m² | - |
| 1777410152 | 13.33° C | 68% | 1014.1 hPa | 0.76 mm | - | 0 W/m² | - |
| 1777409968 | 13.33° C | 66% | 1014.2 hPa | 0.76 mm | - | 0 W/m² | - |
| 1777409785 | 13.33° C | 66% | 1014.4 hPa | 0.76 mm | - | 0 W/m² | - |
| 1777409602 | 13.33° C | 66% | 1014.2 hPa | 0.76 mm | - | 0 W/m² | - |
| 1777409418 | 13.33° C | 66% | 1014.3 hPa | 0.76 mm | - | 0 W/m² | - |
| 1777409235 | 13.33° C | 65% | 1014.3 hPa | 0.76 mm | - | 0 W/m² | - |
| 1777409051 | 13.33° C | 65% | 1014.1 hPa | 0.76 mm | - | 0 W/m² | - |
| 1777408868 | 13.33° C | 65% | 1014.2 hPa | 0.76 mm | - | 0 W/m² | - |
| 1777408685 | 13.33° C | 65% | 1014.1 hPa | 0.76 mm | - | 0 W/m² | - |
| 1777408501 | 13.33° C | 64% | 1014 hPa | 0.76 mm | - | 0 W/m² | - |
| 1777408318 | 13.33° C | 65% | 1014.2 hPa | 0.76 mm | - | 0 W/m² | - |
| 1777408135 | 13.33° C | 66% | 1014.1 hPa | 0.76 mm | - | 0 W/m² | - |
| 1777407951 | 13.33° C | 65% | 1014.3 hPa | 0.76 mm | - | 0 W/m² | - |
| 1777407768 | 13.33° C | 64% | 1014.1 hPa | 0.76 mm | - | 0 W/m² | - |
| 1777407585 | 13.33° C | 64% | 1014.1 hPa | 0.76 mm | - | 0 W/m² | - |
| 1777407401 | 13.33° C | 64% | 1014.1 hPa | 0.76 mm | - | 0 W/m² | - |
| 1777407218 | 13.33° C | 66% | 1014 hPa | 0.76 mm | - | 0 W/m² | - |
| 1777407035 | 13.89° C | 65% | 1014.2 hPa | 0.76 mm | - | 0 W/m² | - |
| 1777406851 | 13.89° C | 65% | 1014 hPa | 0.76 mm | - | 0 W/m² | - |
| 1777406668 | 13.89° C | 62% | 1014 hPa | 0.76 mm | - | 0 W/m² | - |
| 1777406484 | 13.89° C | 60% | 1013.9 hPa | 0.76 mm | - | 0 W/m² | - |
| 1777406301 | 13.89° C | 61% | 1014 hPa | 0.76 mm | - | 0 W/m² | - |
| 1777406118 | 13.89° C | 61% | 1013.9 hPa | 0.76 mm | - | 0 W/m² | - |
* Rain latest hour (hover to see other rain measurements)
** Current wind speed in m/s (hover to see current wind gust speed)